Regional Weather Roundup
Issued by NWS

Home | Current Version | Previous Version | Text Only | Print | Product List | Glossary Off
Versions: 1 2 3 4 5 6 7 8 9 10 11 12 13 14 15 16 17 18 19 20 21 22 23 24 25 26 27 28 29 30 31 32 33 34 35 36 37 38 39 40 41 42 43 44 45 46 47 48 49 50

000
ASUS45 KBOU 050707
RWRCO

WEATHER ROUNDUP FOR COLORADO
NATIONAL WEATHER SERVICE DENVER/BOULDER CO
100 AM MDT TUE MAY 05 2015

NOTE: "FAIR" INDICATES FEW OR NO CLOUDS BELOW 12000 FEET WITH NO
SIGNIFICANT WEATHER AND/OR OBSTRUCTIONS TO VISIBILITY.

COZ001>005-013-030-031-050800-
...NORTHWEST COLORADO...

CITY           SKY/WX    TMP DP  RH WIND       PRES   REMARKS
CRAIG          PTCLDY    47  38  71 E6        29.98F
HAYDEN         NOT AVBL
MEEKER         PTCLDY    45  38  76 E3        29.99S
MOUNT WERNER   NOT AVBL
STEAMBOAT SPGS PTCLDY    41  37  85 CALM      30.02S
WALDEN         PTCLDY    36  32  87 SE7       30.07F
$$

COZ006>008-011-050800-
...WEST CENTRAL VALLEYS...

CITY           SKY/WX    TMP DP  RH WIND       PRES   REMARKS
GRAND JUNCTION CLOUDY    57  44  62 E10       29.91S
MONTROSE       CLOUDY    51  44  77 S8        29.98F
EAGLE          MOCLDY    43  39  87 CALM      30.05F
RIFLE          MOCLDY    48  42  80 CALM      29.95F
DELTA          CLOUDY    55  45  69 S5        29.95S
NUCLA          CLOUDY    50  43  76 SE6       30.02S
$$

COZ017>023-064>068-050800-
...SOUTHWEST COLORADO...

CITY           SKY/WX    TMP DP  RH WIND       PRES   REMARKS
DURANGO        CLOUDY    47  43  86 E3        30.02F
CORTEZ         CLOUDY    51  46  83 CALM      29.98F
PAGOSA SPRINGS CLOUDY    43  42  97 CALM      30.07S
TELLURIDE      RAIN      41  40  97 CALM      30.11F
WOLF CREEK PAS NOT AVBL
$$

COZ009-010-012-014-032>034-037-058>063-050800-
...CENTRAL COLORADO...

CITY           SKY/WX    TMP DP  RH WIND       PRES   REMARKS
ASPEN          CLOUDY    41  36  82 S6        30.04F
BUENA VISTA    NOT AVBL
COPPER MTN     CLOUDY    36  32  87 E12       30.23F
BERTHOUD PASS  HAZE      28  19  69 E22       30.26F VSB<1/4 WCI  15
COTTONWOOD PAS DRIZZLE   41  37  87 CALM      30.17S
GUNNISON       CLOUDY    45  36  70 N6        30.10S
KREMMLING      PTCLDY    37  36  93 CALM      30.08F
LEADVILLE      LGT RAIN  36  35  96 CALM      30.15F
MONARCH PASS   SNOW      30  30 100 MISG      30.32S VSB<1/4
SALIDA         CLOUDY    46  44  93 CALM      30.17F
SUNLIGHT       MOCLDY    36  34  93 E5        30.19S
WILKERSON PASS SNOW      32  32 100 E7        30.24F VSB 1/4 WCI  26
$$

COZ069>075-050800-
...SAN LUIS VALLEY/SANGRE DE CRISTO MOUNTAINS...

CITY           SKY/WX    TMP DP  RH WIND       PRES   REMARKS
ALAMOSA        LGT RAIN  47  41  80 NW6       30.05S
LA VETA PASS   LGT RAIN  36  36 100 MISG      30.16F VSB 1/4
SAGUACHE       DRIZZLE   45  41  87 NW8       30.07F
$$

COZ035-036-038>040-050800-
...NORTHERN COLORADO FRONT RANGE...

CITY           SKY/WX    TMP DP  RH WIND       PRES   REMARKS
DENVER INTL AP CLOUDY    49  47  93 E7        30.06F FOG
DMNS CITY PARK   N/A     51  50  97 N1        30.05F
AURORA         NOT AVBL
FRONT RANGE AP NOT AVBL
ERIE MUNI ARPT CLOUDY    50  49  97 E3        30.06F FOG
BOULDER MUN AP CLOUDY    50  50 100 CALM      30.05F FOG
CENTENNIAL     LGT RAIN  49  46  90 S9        30.06F
BROOMFIELD     CLOUDY    50  50 100 NE5       30.07S FOG
FORT COLLINS   CLOUDY    48  45  87 E9        30.08F
LONGMONT       CLOUDY    52  50  92 E3        30.08F
$$

COZ041-046-047-076>085-087-088-050800-
...PIKES PEAK/PALMER DIVIDE AND SOUTHERN FOOTHILLS...

CITY           SKY/WX    TMP DP  RH WIND       PRES   REMARKS
COLO. SPRINGS  LGT RAIN  49  46  90 E5        30.10S
A. F. ACADEMY  DRIZZLE   46  44  93 CALM      30.09F
ELLICOTT       CLOUDY   N/A N/A N/A E13       30.08F
FALCON         CLOUDY    46  46  98 E6        30.12F
FORT CARSON    DRIZZLE   48  46  93 N8        30.08S
LIMON          CLOUDY    48  47  96 SE8       30.07F FOG
MONUMENT HILL  RAIN      43  43 100 SE3       30.09F
TRINIDAD       CLOUDY    50  48  93 N7        30.03F
$$

COZ042>045-048>051-090-091-050800-
...NORTHEAST COLORADO...

CITY           SKY/WX    TMP DP  RH WIND       PRES   REMARKS
GREELEY ARPT   CLOUDY    46  43  87 E7        30.07F
AKRON          FOG       45  45 100 E7        30.07F VSB 1/4
BURLINGTON     CLOUDY    49  46  90 E7        30.07R FOG
WRAY           CLOUDY   N/A N/A N/A NE6       30.07F
STERLING       CLOUDY    46  45  93 E8        30.07F FOG
HOLYOKE        NOT AVBL
FORT MORGAN    CLOUDY    47  44  92 E7        30.07F
$$

COZ086-089-092>099-050800-
...SOUTHEAST COLORADO...

CITY           SKY/WX    TMP DP  RH WIND       PRES   REMARKS
PUEBLO         CLOUDY    53  50  89 E12       30.03F
LA JUNTA       CLOUDY    55  53  93 E7        30.02F
LAMAR          CLOUDY    55  54  96 E12       30.00F
SPRINGFIELD      N/A     53  53 100 E10       30.02F
$$



USA.gov is the U.S. government's official web portal to all federal, state and local government web resources and services.